Location: Avon School (historical)
(37.7514°N, 90.2201°W)
Time: 02:52:25
(UTC+00:00)

Explorer 7 - Pass Details

Date: 11 November 2024
Orbit: 456 x 598 km, 50.3° (Epoch: 03 December)

Event Time Altitude Azimuth Distance (km) Brightness Sun altitude
Exits shadow 09:58:10 17° 47° (NE) 1,430 9.4 -31.6°
Drops below altitude 10° 09:59:10 10° 49° (NE) 1,821 10.0 -31.4°
Sets 10:01:29 0° 52° (NE) 2,744 11.1 -30.9°
